Wind_Speed
4 4 5 5 6 7 7 6 7 8 8 9 9 10 11 11 12 13 14 15 16 17 18 19 20 21 22 22 23 24 25 25 25 26 26 27 28 29 30 30 30 30 31
3 4 5 6 6 6 6 7 7 8 9 9 9 10 11 12 13 13 14 15 16 17 18 20 20 22 23 23 24 25 26 27 27 27 27 27 29 29 30 31 31 32 32
4 4 4 5 5 6 6 7 8 9 9 10 11 12 12 13 13 14 14 15 16 17 18 20 21 22 22 23 24 25 26 27 27 28 29 29 29 30 31 32 32 33 33
3 4 4 5 5 6 6 7 8 9 10 11 12 12 12 13 13 14 15 15 16 17 18 19 21 21 22 23 24 25 25 27 28 29 29 30 31 31 31 33 34 34 35
3 4 4 5 5 7 8 8 9 10 11 12 13 13 14 14 15 15 15 16 16 17 18 19 20 21 22 23 24 25 26 27 28 29 30 31 32 32 33 33 34 35 36
3 4 4 5 6 7 8 9 10 11 13 14 14 15 15 16 16 16 16 16 17 18 18 19 20 21 22 23 24 25 25 26 28 29 30 31 32 33 35 35 35 36 37
3 4 5 6 7 8 9 10 11 13 14 15 16 16 17 17 17 17 17 18 19 19 20 20 21 22 23 23 24 25 26 27 28 29 31 32 33 34 35 36 37 37 38
2 3 5 6 7 9 10 12 13 14 15 16 17 17 17 17 17 18 18 19 20 20 21 21 21 22 22 23 24 25 26 27 28 29 31 32 33 34 35 36 37 38 39
3 4 5 7 8 9 11 12 14 15 16 17 17 18 18 18 18 19 19 20 20 21 21 22 22 22 23 23 24 25 26 27 28 29 30 31 33 34 35 36 37 38 38
3 5 6 7 9 10 11 13 14 16 16 17 18 19 19 20 20 20 20 21 21 22 22 22 22 23 23 24 24 25 25 26 27 28 29 30 32 34 35 37 37 38 39
4 5 7 8 10 11 12 14 15 16 17 18 19 20 20 21 22 22 22 22 23 23 23 23 23 23 23 24 24 25 25 26 27 27 28 29 31 32 34 36 37 38 38
4 6 7 9 10 12 13 14 15 17 18 19 20 21 21 22 23 23 24 24 24 24 24 24 24 24 24 24 24 25 25 26 27 28 28 29 30 31 33 34 36 38 38
5 6 7 9 11 12 13 15 16 17 18 19 20 21 22 23 24 25 25 25 26 25 25 25 25 25 25 25 25 25 25 26 27 27 28 30 30 31 32 33 35 36 38
6 7 8 10 11 12 13 15 16 17 18 19 21 22 23 23 25 26 27 27 27 26 26 26 26 26 26 26 26 26 26 26 27 27 28 29 30 30 31 32 33 35 37
7 8 9 10 12 13 14 15 16 17 19 20 22 23 24 25 27 27 27 27 27 27 27 27 27 26 26 27 27 27 27 27 28 28 28 28 29 29 30 31 33 34 36
8 9 10 11 12 13 14 15 17 18 20 22 23 25 25 27 27 28 27 28 28 28 28 28 28 27 28 28 28 28 28 28 28 28 28 28 28 29 29 31 32 33 35
9 10 11 12 13 14 15 17 18 19 21 23 25 26 26 27 28 29 28 29 29 29 29 29 29 29 29 29 29 28 27 27 27 26 26 26 27 27 28 29 31 33 35
10 11 12 13 14 15 17 18 20 21 22 24 25 26 27 28 29 30 30 30 30 30 30 29 29 30 30 30 29 28 27 27 26 26 25 25 26 26 27 28 30 31 33
12 13 13 14 15 16 18 19 21 22 23 24 25 27 28 29 30 30 30 31 30 30 30 30 30 30 30 29 28 28 27 27 26 26 25 25 26 26 27 28 29 31 33
13 14 14 15 16 18 19 20 22 23 24 25 26 28 29 30 30 31 31 31 31 30 31 31 31 31 30 29 29 28 28 27 27 26 26 26 26 27 27 28 28 30 32
15 15 16 17 18 19 20 22 23 24 25 27 28 28 29 30 31 31 32 31 31 31 32 31 31 31 30 30 29 28 28 27 26 26 26 26 26 26 26 27 28 29 31
16 16 17 18 19 20 22 23 24 25 26 28 29 29 30 31 31 32 32 32 32 32 32 32 31 31 31 30 29 29 27 27 26 26 26 27 27 27 27 27 27 28 29
18 18 19 20 21 22 23 25 25 26 27 29 29 30 31 32 32 32 33 33 32 32 32 32 32 32 31 30 30 28 27 27 27 26 26 26 27 27 27 27 27 27 27
19 20 20 21 23 24 25 26 27 28 28 29 30 32 32 32 33 33 33 33 33 33 33 33 33 32 32 31 30 29 28 27 27 27 26 26 27 27 26 25 25 25 25
21 21 22 23 24 26 26 28 28 28 29 30 31 33 33 33 34 34 34 34 34 34 34 34 33 33 33 32 31 29 28 28 27 27 26 26 26 26 25 24 24 24 24
22 23 23 24 25 26 27 28 29 30 31 32 33 34 35 35 35 35 35 35 35 35 36 35 34 33 33 32 31 29 28 28 27 27 27 27 26 25 24 23 23 23 23
Wind_Direction
332 326 327 330 332 334 335 334 333 327 324 319 312 306 302 298 295 293 290 288 286 281 277 275 272 269 267 265 264 263 261 259 257 254 253 252 249 248 248 247 244 243 241
353 353 344 335 332 332 333 334 332 328 325 323 318 313 307 300 295 292 289 287 285 282 279 278 276 273 270 267 265 265 262 259 257 255 252 253 252 250 250 247 245 244 243
13 4 355 345 340 339 341 340 335 331 329 325 321 316 311 307 304 301 297 293 289 286 284 282 279 277 274 271 269 267 263 260 259 256 253 252 252 251 250 249 247 245 243
26 20 9 4 1 356 352 347 343 338 333 330 328 325 323 319 315 310 305 301 298 295 291 288 285 282 279 275 271 268 265 263 261 258 256 254 251 251 250 249 248 247 244
31 23 15 11 8 3 357 353 347 343 339 337 336 333 329 324 320 315 310 306 303 300 297 293 289 286 282 278 274 270 267 265 262 261 258 256 253 251 250 249 248 247 246
34 28 21 15 8 2 359 355 351 349 347 344 341 337 333 328 324 320 316 313 309 306 302 299 294 290 287 283 279 275 271 268 265 263 261 258 256 253 251 249 249 247 245
31 27 20 14 8 4 2 360 356 352 349 347 344 341 338 334 328 324 320 317 314 310 307 303 299 294 291 286 282 279 275 271 268 264 262 260 258 255 252 250 248 247 245
21 22 16 11 7 5 3 1 356 353 350 348 345 343 340 337 333 329 325 321 317 314 310 307 303 299 295 291 287 283 279 275 271 267 264 261 259 256 254 251 249 247 246
29 23 16 9 7 4 360 357 354 351 348 347 345 343 341 339 336 332 328 325 322 319 315 310 306 302 299 295 291 287 283 278 274 271 267 263 261 258 255 253 250 248 246
33 23 12 6 4 1 356 353 351 348 347 346 345 344 343 341 337 334 331 328 326 323 321 316 311 307 303 300 296 291 286 282 277 274 270 266 263 260 258 255 252 249 247
22 11 5 2 0 357 355 352 349 347 346 346 345 344 343 341 338 336 333 330 328 326 324 321 317 313 309 304 300 296 290 285 280 277 272 269 265 262 260 257 254 251 248
13 4 357 356 356 354 352 349 347 346 345 345 344 342 341 340 338 336 333 331 329 326 324 322 320 316 312 309 305 300 295 289 283 279 276 272 268 265 262 259 256 253 250
0 354 349 349 350 349 347 344 344 343 343 343 342 341 340 339 337 335 333 330 328 326 324 322 321 319 315 311 308 303 299 294 288 282 278 274 270 266 263 260 257 255 252
344 342 340 340 340 338 338 339 340 341 341 341 341 340 338 337 336 334 332 330 329 327 325 322 321 319 316 313 310 306 302 298 293 287 282 277 273 268 265 261 258 256 253
329 329 328 328 328 329 330 332 335 337 337 337 337 336 335 335 335 335 333 331 329 328 325 323 321 320 318 315 311 308 304 300 296 290 285 281 276 271 267 263 260 257 254
315 316 316 317 319 322 325 328 329 331 332 332 333 334 334 334 335 335 333 331 329 328 325 324 322 321 319 316 313 310 306 303 299 294 289 284 279 274 269 265 262 259 256
305 305 305 309 313 317 321 324 325 327 328 329 330 332 332 333 333 334 332 331 330 328 326 325 323 322 320 318 315 312 309 306 302 297 292 287 281 277 272 268 264 261 258
295 299 304 308 311 314 318 320 321 323 325 328 329 329 329 330 330 331 331 330 330 328 328 327 325 323 322 319 316 314 312 308 305 300 295 291 286 281 276 272 268 264 260
291 295 300 305 308 312 315 317 319 320 322 325 327 327 328 329 329 330 330 329 329 328 328 327 326 324 323 320 317 315 313 310 306 302 298 294 290 286 280 275 271 266 262
287 292 296 302 306 310 313 315 317 318 319 321 323 324 325 326 327 328 328 328 328 328 327 326 325 325 324 321 318 316 314 311 308 304 301 297 293 289 284 279 274 270 265
285 289 294 299 304 308 311 313 315 316 318 320 320 321 323 325 325 326 326 327 327 327 327 326 325 325 324 322 319 317 314 312 309 306 304 300 297 294 290 284 279 274 270
286 290 294 298 301 304 307 310 312 314 316 318 320 321 323 324 325 325 326 326 326 326 326 326 325 325 324 322 320 317 315 312 310 307 306 303 300 297 293 289 284 279 274
286 289 293 296 299 301 304 308 309 312 315 318 319 320 321 322 323 324 325 325 325 325 325 324 324 324 323 321 319 317 315 313 310 308 307 305 305 301 296 292 286 282 277
286 289 291 295 297 300 302 305 307 309 312 315 318 319 320 321 322 322 323 324 324 324 324 323 323 323 323 321 319 318 316 314 312 310 307 306 306 305 301 294 289 286 280
286 290 292 295 296 298 300 304 306 308 311 313 316 318 318 319 320 322 322 322 322 322 322 322 321 321 321 320 318 316 315 314 312 310 308 308 308 306 302 298 293 288 284
286 288 291 293 295 297 300 302 304 307 309 311 314 315 316 317 318 319 321 321 321 321 322 321 320 319 319 319 318 316 314 313 312 311 309 309 308 307 304 301 298 293 287
Height
5864 5863 5863 5862 5861 5861 5860 5859 5859 5858 5857 5856 5856 5855 5853 5852 5851 5850 5849 5847 5846 5846 5845 5845 5844 5844 5844 5844 5845 5845 5845 5845 5846 5847 5848 5849 5850 5851 5853 5855 5857 5860 5862
5863 5862 5862 5861 5860 5860 5859 5858 5858 5857 5856 5854 5853 5852 5851 5849 5848 5846 5845 5844 5843 5841 5840 5840 5839 5839 5838 5838 5838 5838 5838 5839 5839 5840 5842 5843 5844 5845 5846 5848 5850 5852 5855
5863 5862 5862 5861 5859 5859 5858 5857 5856 5855 5853 5852 5851 5849 5848 5846 5844 5842 5841 5840 5838 5837 5836 5834 5833 5833 5832 5832 5831 5831 5831 5831 5832 5833 5834 5835 5837 5837 5839 5841 5842 5844 5846
5863 5862 5861 5860 5859 5858 5857 5856 5855 5853 5852 5850 5848 5846 5844 5842 5840 5838 5836 5835 5833 5832 5830 5829 5827 5826 5825 5825 5824 5824 5824 5824 5824 5825 5826 5827 5829 5830 5831 5833 5834 5836 5838
5862 5861 5860 5860 5858 5857 5856 5854 5853 5851 5849 5847 5845 5843 5840 5838 5836 5834 5832 5830 5828 5826 5824 5823 5821 5820 5818 5818 5817 5816 5816 5816 5816 5816 5817 5818 5819 5821 5822 5824 5825 5827 5829
5861 5860 5859 5858 5857 5856 5854 5853 5851 5849 5847 5844 5842 5840 5837 5835 5832 5830 5828 5826 5823 5821 5819 5817 5815 5813 5811 5810 5809 5809 5808 5808 5808 5808 5808 5809 5810 5811 5813 5815 5816 5818 5820
5860 5859 5858 5857 5856 5854 5852 5850 5849 5847 5844 5842 5839 5836 5834 5831 5828 5826 5823 5821 5818 5816 5813 5811 5809 5806 5805 5803 5802 5800 5800 5800 5799 5799 5799 5800 5800 5801 5803 5805 5806 5808 5810
5858 5857 5856 5855 5854 5852 5850 5848 5846 5844 5842 5839 5837 5834 5831 5828 5825 5822 5819 5816 5813 5810 5807 5805 5802 5800 5798 5796 5794 5793 5791 5791 5790 5790 5790 5790 5791 5791 5793 5794 5796 5798 5800
5856 5855 5854 5853 5852 5850 5848 5846 5844 5842 5840 5837 5834 5831 5828 5824 5821 5818 5815 5811 5808 5805 5802 5799 5796 5793 5791 5788 5786 5785 5783 5782 5781 5781 5780 5780 5780 5781 5782 5783 5785 5788 5790
5854 5853 5852 5851 5850 5848 5847 5844 5842 5840 5837 5834 5831 5828 5824 5821 5817 5814 5810 5807 5803 5800 5796 5793 5790 5787 5784 5781 5779 5777 5775 5773 5772 5771 5771 5770 5771 5771 5771 5773 5775 5777 5779
5852 5851 5850 5849 5848 5846 5844 5842 5840 5837 5834 5831 5828 5825 5821 5817 5814 5810 5806 5802 5798 5794 5791 5787 5783 5780 5777 5774 5771 5769 5767 5765 5763 5762 5761 5761 5761 5761 5761 5762 5763 5765 5768
5849 5849 5848 5846 5845 5843 5842 5840 5837 5834 5832 5829 5825 5822 5818 5814 5810 5806 5802 5798 5794 5790 5786 5782 5778 5774 5771 5767 5764 5762 5759 5757 5755 5753 5752 5751 5751 5751 5751 5751 5752 5754 5756
5847 5846 5845 5844 5843 5841 5840 5838 5835 5832 5829 5826 5823 5819 5815 5811 5807 5802 5798 5794 5789 5785 5781 5776 5772 5768 5765 5761 5758 5754 5751 5749 5746 5745 5743 5742 5741 5741 5741 5741 5742 5743 5745
5844 5844 5843 5842 5840 5839 5837 5835 5833 5830 5827 5823 5820 5816 5811 5807 5803 5798 5794 5789 5784 5780 5775 5771 5767 5762 5758 5754 5751 5747 5744 5741 5738 5736 5734 5732 5731 5731 5731 5731 5732 5732 5734
5841 5841 5841 5840 5838 5837 5835 5833 5830 5827 5824 5820 5816 5812 5808 5803 5799 5794 5789 5784 5779 5775 5770 5766 5761 5756 5752 5748 5744 5740 5736 5733 5730 5727 5725 5723 5722 5721 5721 5721 5721 5722 5723
5839 5839 5838 5837 5835 5834 5832 5829 5827 5824 5820 5816 5812 5808 5804 5799 5794 5789 5784 5779 5774 5769 5764 5760 5755 5750 5746 5741 5736 5732 5728 5724 5721 5718 5716 5714 5712 5711 5711 5711 5711 5711 5712
5836 5836 5835 5834 5832 5830 5828 5826 5823 5819 5816 5812 5808 5804 5799 5794 5790 5785 5780 5774 5769 5764 5759 5754 5749 5744 5739 5734 5729 5724 5720 5716 5713 5710 5707 5705 5703 5702 5701 5700 5700 5700 5701
5833 5833 5831 5830 5828 5826 5824 5821 5818 5815 5812 5808 5804 5799 5795 5790 5785 5780 5774 5769 5763 5758 5753 5748 5742 5737 5732 5726 5722 5717 5713 5709 5705 5702 5699 5697 5694 5693 5692 5691 5690 5690 5690
5830 5829 5827 5826 5824 5822 5819 5817 5814 5811 5807 5803 5799 5794 5790 5785 5779 5774 5769 5763 5758 5752 5747 5742 5736 5731 5725 5720 5715 5710 5706 5702 5698 5694 5692 5689 5686 5684 5683 5681 5680 5680 5679
5825 5824 5823 5821 5819 5817 5815 5812 5809 5805 5802 5798 5794 5789 5784 5779 5774 5769 5763 5758 5752 5747 5741 5736 5730 5725 5719 5713 5708 5704 5699 5695 5691 5687 5684 5681 5678 5675 5673 5672 5670 5669 5668
5820 5819 5818 5816 5815 5812 5810 5807 5804 5800 5796 5792 5788 5783 5778 5773 5768 5763 5757 5752 5746 5740 5735 5730 5724 5718 5713 5707 5702 5697 5692 5688 5684 5680 5676 5673 5670 5667 5664 5662 5660 5659 5658
5815 5814 5813 5811 5809 5807 5804 5801 5798 5795 5791 5786 5782 5777 5772 5767 5762 5757 5751 5746 5740 5734 5729 5723 5718 5712 5707 5701 5696 5691 5686 5681 5677 5673 5669 5665 5662 5658 5655 5652 5650 5648 5647
5809 5808 5807 5805 5803 5801 5798 5795 5792 5788 5784 5780 5776 5771 5766 5761 5755 5750 5745 5739 5733 5728 5722 5717 5711 5706 5700 5695 5689 5684 5679 5675 5670 5666 5662 5658 5654 5650 5646 5643 5640 5638 5637
5803 5802 5800 5799 5797 5794 5791 5788 5785 5781 5777 5773 5769 5764 5759 5754 5749 5743 5738 5732 5727 5721 5716 5710 5704 5699 5693 5688 5683 5677 5673 5668 5663 5659 5655 5650 5646 5642 5638 5634 5632 5629 5627
5797 5796 5794 5792 5790 5787 5785 5781 5777 5774 5770 5766 5762 5757 5752 5747 5742 5736 5731 5725 5720 5714 5709 5703 5697 5692 5687 5681 5676 5671 5666 5661 5657 5652 5648 5643 5639 5635 5631 5627 5624 5621 5619
5791 5789 5787 5785 5783 5780 5777 5774 5771 5767 5763 5759 5754 5749 5744 5739 5734 5729 5723 5717 5712 5707 5701 5695 5690 5684 5679 5673 5668 5663 5659 5654 5649 5645 5641 5636 5632 5628 5624 5620 5617 5614 5611